[[{"header":{"parameterUnit":"m.s-1","parameterCategory":1,"la1":30.2991,"la2":30.254,"lo1":-89.0895,"lo2":-89.0444,"dy":0.0017,"dx":0.0017,"nx":28,"ny":28,"refTime":"2025-03-15T21:00:00:Z","depth":0,"parameterNumber":2,"parameterNumberName":"U-component_of_WINDS"},"data":[0,0,0,0,0,0,0,0,0,0,0,0,0,0,0,0,0,0,0,0,0,0,0,0,0,0,0,0,0,0,0,0,0,0,0,0,0,0,0,0,0,0,0,0,0,0,0,0,0,0,0,0,0,0,0,0,0,0,4.6505,4.6507,0,4.6711,4.6713,4.6715,4.6664,4.666,4.6656,4.6652,4.6872,4.6881,4.6891,0,0,0,0,0,0,0,0,0,0,0,0,0,4.6076,4.6084,4.6505,4.6507,4.651,4.671,4.6713,4.6716,4.6665,4.666,4.6655,4.665,4.6869,4.688,4.6892,0,0,0,0,0,0,0,0,0,0,0,0,0,4.627,4.6086,4.6504,4.6508,4.6511,4.671,4.6713,4.6717,4.6666,4.666,4.6653,4.6648,4.6865,4.6879,4.6893,4.7104,0,0,4.6938,4.6944,0,0,0,0,0,0,0,0,4.6259,4.6286,4.6505,4.6508,4.6511,4.6655,4.6642,4.6847,4.6667,4.6607,4.6652,4.6645,4.6805,4.6824,4.6877,4.7114,4.7124,4.6939,4.6948,4.6954,4.6958,0,0,0,0,0,0,0,4.6246,4.6277,4.6586,4.6508,4.6512,4.6502,4.6523,4.6681,4.6738,4.6612,4.6609,4.6633,4.6806,4.6863,4.6881,4.7127,4.6938,4.6951,4.696,4.6966,4.7548,4.7555,0,0,0,0,0,0,4.6228,4.6266,4.658,4.6593,4.6367,4.6515,4.6538,4.6615,4.6736,4.6749,4.6638,4.663,4.6841,4.6865,4.6889,4.7143,4.6954,4.6967,4.6976,4.7542,4.755,4.7557,0,0,0,0,0,0,4.6219,4.6257,4.6572,4.6428,4.6468,4.6529,4.6616,4.6623,4.6679,4.6756,4.6767,4.6685,4.6837,4.6869,4.705,4.715,4.6974,4.6987,4.7534,4.7544,4.7554,4.7654,0,0,0,0,0,0,4.6207,4.6254,4.6333,4.643,4.6475,4.6727,4.6622,4.6631,4.6703,4.6694,4.6803,4.6815,4.6835,4.7029,4.7065,4.7167,4.6998,4.7525,4.7538,4.755,4.7642,4.7666,4.7687,0,0,0,0,0,4.6192,4.6355,4.6337,4.6375,4.6575,4.6733,4.6759,4.6776,4.6711,4.6792,4.6841,4.6812,4.7133,4.7048,4.7088,4.7196,4.7519,4.7535,4.7549,4.7632,4.7661,4.7686,0,0,0,0,0,0,4.627,4.6368,4.6349,4.6547,4.6632,4.6724,4.6826,4.6807,4.6914,4.6902,4.6921,4.6946,4.7131,4.7182,4.7085,4.7406,4.7317,4.7341,4.7366,4.7395,4.7417,4.7401,4.701,0,0,0,0,0,4.631,4.6428,4.6507,4.6675,4.6718,4.6765,4.6835,4.684,4.693,4.6966,4.7029,4.712,4.7241,4.7321,4.7437,4.7649,4.7672,4.7743,4.7765,4.7784,4.7804,4.792,4.7953,4.7608,4.7607,4.7607,0,0,4.6395,4.6462,4.6536,4.6692,4.6758,4.6882,4.6796,4.6931,4.7023,4.6988,4.7162,4.7211,4.7314,4.7512,4.7602,4.756,4.7905,4.7803,4.7817,4.7828,4.7939,4.7972,4.8001,4.7618,4.7616,4.7614,0,0,4.6611,4.6674,4.682,4.6887,4.6987,4.7017,4.7053,4.7148,4.7178,4.7353,4.7329,4.7441,4.765,4.7723,4.7788,4.8033,4.801,4.8071,4.8189,4.8301,4.8329,4.8353,4.844,4.8471,4.8091,4.8091,4.8092,0,4.6704,4.6887,4.6898,4.7035,4.7105,4.7075,4.7225,4.7291,4.7425,4.7476,4.7426,4.7686,4.7754,4.7968,4.8027,4.8081,4.8123,4.8058,4.8323,4.8348,4.837,4.8454,4.8487,4.8098,4.8097,4.8097,4.8096,0,4.6996,4.7124,4.723,4.7357,4.7439,4.7582,4.7617,4.77,4.7698,4.7735,4.7914,4.7993,4.8124,4.8176,4.8177,4.8391,4.8361,4.8317,4.8228,4.841,4.8488,4.8521,4.8108,4.8105,4.8103,4.8102,0,0,4.7268,4.7398,4.7437,4.7494,4.7602,4.7702,4.7845,4.797,4.804,4.8135,4.8255,4.8432,4.8392,4.8466,4.8475,4.8574,4.8763,4.8518,4.8521,4.8561,4.9004,4.9035,4.9072,4.8748,4.8754,4.8759,4.8995,0,4.7494,4.774,4.7755,4.7979,4.8097,4.8071,4.8195,4.8277,4.8315,4.8423,4.8466,4.859,4.8528,4.8572,4.8669,4.8719,4.8852,4.8703,4.8862,4.8868,4.8836,4.9113,4.9148,4.9366,4.9026,4.9031,4.9035,0,4.779,4.7889,4.8125,4.8215,4.8266,4.8377,4.8492,4.8596,4.8688,4.8709,4.8791,4.8786,4.8935,4.884,4.9045,4.8943,4.901,4.9045,4.9054,4.9069,4.8962,4.9136,4.9436,4.9469,4.9084,4.908,4.9076,0,4.7964,4.8157,4.8323,4.8373,4.8483,4.8561,4.8612,4.8698,4.8772,4.8875,4.8924,4.9044,4.9109,4.9204,4.9232,4.9161,4.9437,4.9345,4.946,4.9459,4.9519,4.9515,4.9834,4.9563,4.9563,4.9562,4.9561,0,4.8214,4.8359,4.8402,4.8504,4.8666,4.8683,4.8844,4.889,4.8967,4.9079,4.9066,4.9172,4.9203,4.9316,4.934,4.9507,4.9537,4.9559,4.9564,4.956,4.9557,4.9604,4.9589,4.9571,4.9569,4.9567,4.9565,0,4.8435,4.847,4.8648,4.8737,4.8763,4.8879,4.8957,4.9056,4.9091,4.9234,4.9268,4.9325,4.9457,4.9495,4.9655,4.967,4.9866,4.9857,4.9833,4.9834,4.9946,4.9935,5.0306,5.0355,5.0052,5.0055,5.0058,0,4.8592,4.8703,4.8803,4.8875,4.8928,4.9046,4.9121,4.9143,4.9222,4.9335,4.9421,4.955,4.9655,4.9867,4.9925,5.0047,5.004,5.0162,5.0059,5.0051,5.0042,5.0034,5.0046,5.0181,5.0185,5.0187,5.0189,0,4.8867,4.8878,4.8985,4.9099,4.9188,4.9279,4.9367,4.9428,4.9463,4.9553,4.9686,4.9766,4.9928,5.0057,5.018,5.0235,5.0219,5.0221,5.0254,5.0251,5.0233,5.0244,4.9886,5.0213,5.021,5.0209,5.0207,5.0206,4.9061,4.9157,4.9243,4.9363,4.943,4.9512,4.9609,4.9656,4.9766,4.9897,4.9904,5.0048,5.0139,5.0303,5.0364,5.0479,5.0443,5.0491,5.0503,5.0515,5.0523,5.0215,5.0502,5.0501,5.0501,5.05,5.05,0,4.9334,4.9387,4.9497,4.9619,4.9714,4.9688,4.9784,4.9865,4.9991,5.0076,5.0178,5.0331,5.0456,5.0523,5.0648,5.0727,5.0723,5.0759,5.0754,5.0767,5.0549,5.0507,5.0761,5.0761,5.076,5.076,5.076,5.076,4.9487,4.9649,4.9671,4.9867,4.992,5.0059,5.0116,5.0192,5.026,5.043,5.0533,5.0574,5.0653,5.0783,5.0897,5.0914,5.0961,5.1001,5.1014,5.0809,5.0782,5.0757,5.0717,5.1011,5.1011,5.1222,5.1224,5.1225]},{"header":{"parameterUnit":"m.s-1","parameterCategory":1,"la1":30.2991,"la2":30.254,"lo1":-89.0895,"lo2":-89.0444,"dy":0.0017,"dx":0.0017,"nx":28,"ny":28,"refTime":"2025-03-15T21:00:00:Z","depth":0,"parameterNumber":3,"parameterNumberName":"V-component_of_WINDS"},"data":[0,0,0,0,0,0,0,0,0,0,0,0,0,0,0,0,0,0,0,0,0,0,0,0,0,0,0,0,0,0,0,0,0,0,0,0,0,0,0,0,0,0,0,0,0,0,0,0,0,0,0,0,0,0,0,0,0,0,1.8541,1.8542,0,1.8601,1.8602,1.8603,1.8586,1.8585,1.8584,1.8583,1.8646,1.8649,1.8651,0,0,0,0,0,0,0,0,0,0,0,0,0,1.8413,1.8415,1.8541,1.8542,1.8543,1.8601,1.8602,1.8603,1.8587,1.8585,1.8584,1.8582,1.8645,1.8648,1.8652,0,0,0,0,0,0,0,0,0,0,0,0,0,1.847,1.8416,1.8541,1.8542,1.8542,1.8601,1.8602,1.8603,1.8587,1.8585,1.8583,1.8582,1.8644,1.8648,1.8652,1.8715,0,0,1.8665,1.8667,0,0,0,0,0,0,0,0,1.8467,1.8475,1.8541,1.8542,1.8542,1.8585,1.858,1.8641,1.8587,1.857,1.8583,1.8581,1.8627,1.8633,1.8648,1.8718,1.872,1.8665,1.8668,1.867,1.8671,0,0,0,0,0,0,0,1.8463,1.8472,1.8565,1.8542,1.8543,1.8539,1.8545,1.8591,1.8608,1.8571,1.857,1.8578,1.8627,1.8644,1.8649,1.8721,1.8665,1.8669,1.8672,1.8673,1.8846,1.8848,0,0,0,0,0,0,1.8458,1.8469,1.8563,1.8567,1.8499,1.8543,1.855,1.8573,1.8608,1.8611,1.8579,1.8577,1.8638,1.8644,1.8651,1.8728,1.867,1.8674,1.8676,1.8844,1.8846,1.8848,0,0,0,0,0,0,1.8456,1.8467,1.8561,1.8518,1.8529,1.8547,1.8573,1.8575,1.8592,1.8613,1.8616,1.8593,1.8636,1.8646,1.8699,1.8729,1.8676,1.8679,1.8841,1.8845,1.8847,1.888,0,0,0,0,0,0,1.8452,1.8466,1.849,1.8518,1.8532,1.8607,1.8575,1.8578,1.8599,1.8596,1.8627,1.8631,1.8636,1.8693,1.8703,1.8734,1.8683,1.8839,1.8843,1.8846,1.8876,1.8884,1.889,0,0,0,0,0,1.8448,1.8497,1.8491,1.8503,1.8562,1.8609,1.8617,1.8621,1.8601,1.8626,1.864,1.863,1.8724,1.8699,1.871,1.8743,1.8837,1.8842,1.8846,1.8873,1.8882,1.889,0,0,0,0,0,0,1.8472,1.8501,1.8495,1.8554,1.8579,1.8606,1.8637,1.8631,1.8662,1.8658,1.8663,1.867,1.8725,1.8739,1.871,1.8805,1.8778,1.8785,1.8794,1.8803,1.881,1.8806,1.8686,0,0,0,0,0,1.8484,1.8519,1.8543,1.8593,1.8606,1.8619,1.864,1.8641,1.8667,1.8678,1.8696,1.8722,1.8757,1.8781,1.8815,1.8878,1.8885,1.8906,1.8913,1.8918,1.8925,1.896,1.897,1.8864,1.8864,1.8863,0,0,1.851,1.853,1.8552,1.8599,1.8618,1.8655,1.8628,1.8669,1.8697,1.8684,1.8736,1.875,1.8779,1.8838,1.8865,1.8852,1.8955,1.8924,1.8928,1.8932,1.8965,1.8975,1.8984,1.8867,1.8866,1.8866,0,0,1.8576,1.8594,1.8639,1.8659,1.8688,1.8697,1.8707,1.8735,1.8744,1.8796,1.8787,1.882,1.8881,1.8903,1.8922,1.8995,1.8988,1.9006,1.9043,1.9077,1.9085,1.9093,1.912,1.9129,1.9012,1.9013,1.9013,0,1.8605,1.866,1.8663,1.8704,1.8725,1.8715,1.876,1.8779,1.8818,1.8833,1.8818,1.8894,1.8913,1.8977,1.8995,1.901,1.9023,1.9003,1.9084,1.9091,1.9098,1.9124,1.9134,1.9015,1.9014,1.9014,1.9014,0,1.8694,1.8732,1.8765,1.8803,1.8827,1.887,1.888,1.8904,1.8903,1.8913,1.8966,1.8988,1.9027,1.9042,1.9041,1.9106,1.9097,1.9082,1.9055,1.911,1.9135,1.9145,1.9018,1.9017,1.9016,1.9016,0,0,1.8778,1.8816,1.8828,1.8846,1.8877,1.8907,1.895,1.8987,1.9008,1.9035,1.9072,1.9123,1.911,1.9132,1.9133,1.9163,1.9221,1.9145,1.9146,1.9159,1.9294,1.9305,1.9317,1.9215,1.9217,1.9219,1.9292,0,1.8848,1.8922,1.8926,1.8994,1.903,1.9021,1.9058,1.9081,1.9092,1.9124,1.9136,1.9172,1.9152,1.9165,1.9194,1.9208,1.9248,1.9202,1.925,1.9251,1.9244,1.9329,1.9341,1.9409,1.9301,1.9303,1.9304,0,1.8939,1.8969,1.9041,1.9067,1.9083,1.9116,1.915,1.9181,1.9208,1.9213,1.9237,1.9234,1.9278,1.9248,1.9309,1.9278,1.9297,1.9307,1.931,1.9315,1.9282,1.9338,1.9431,1.9441,1.9319,1.9318,1.9317,0,1.8994,1.9052,1.9103,1.9118,1.915,1.9174,1.9188,1.9213,1.9235,1.9265,1.928,1.9314,1.9334,1.9361,1.9368,1.9345,1.9429,1.9399,1.9435,1.9435,1.9454,1.9453,1.9553,1.9465,1.9465,1.9465,1.9465,0,1.9072,1.9117,1.9128,1.9159,1.9209,1.9212,1.9262,1.9275,1.9297,1.933,1.9324,1.9356,1.9363,1.9396,1.9401,1.9452,1.946,1.9466,1.9467,1.9467,1.9467,1.9481,1.9477,1.9467,1.9467,1.9466,1.9466,0,1.9143,1.9152,1.9207,1.9233,1.924,1.9276,1.9298,1.9328,1.9337,1.938,1.939,1.9405,1.9444,1.9453,1.95,1.9503,1.9563,1.9559,1.9554,1.9554,1.959,1.9587,1.9703,1.9719,1.962,1.9621,1.9621,0,1.9193,1.9227,1.9256,1.9278,1.9294,1.9329,1.9352,1.9356,1.938,1.9413,1.9439,1.9477,1.9508,1.957,1.9586,1.9621,1.9619,1.9657,1.9624,1.9623,1.962,1.9619,1.9622,1.9664,1.9665,1.9665,1.9666,0,1.928,1.9283,1.9315,1.935,1.9377,1.9404,1.943,1.9448,1.9456,1.9483,1.9523,1.9547,1.9594,1.9632,1.9668,1.9683,1.9676,1.9676,1.9686,1.9688,1.9684,1.9687,1.9572,1.9674,1.9673,1.9672,1.9672,1.9672,1.9343,1.9373,1.9398,1.9434,1.9454,1.9478,1.9508,1.9521,1.9554,1.9593,1.9593,1.9636,1.9662,1.9709,1.9726,1.9761,1.9749,1.9764,1.9768,1.9772,1.9775,1.9677,1.9767,1.9767,1.9767,1.9766,1.9766,0,1.9431,1.9446,1.948,1.9516,1.9545,1.9535,1.9563,1.9588,1.9626,1.9651,1.9681,1.9726,1.9763,1.9781,1.9818,1.9842,1.984,1.9851,1.985,1.9854,1.9783,1.9771,1.9852,1.9852,1.9852,1.9852,1.9852,1.9852,1.948,1.953,1.9536,1.9596,1.9611,1.9654,1.9671,1.9693,1.9713,1.9764,1.9794,1.9805,1.9827,1.9865,1.9899,1.9903,1.9917,1.9931,1.9934,1.9867,1.9859,1.985,1.9839,1.9933,1.9933,2.0001,2.0002,2.0003]}]]